Location: Antioch Church
(34.9543°N, 88.5145°W)
Time: 20:42:52
(UTC+00:00)

Delta 2 Rocket - Pass Details

Date: 11 December 2019
Orbit: 415 x 810 km, 35.6° (Epoch: 26 January)

Event Time Altitude Azimuth Distance (km) Brightness Sun altitude
Rises 00:08:22 0° 247° (WSW) 3,111 8.9 -17.1°
Reaches altitude 10° 00:10:57 10° 245° (WSW) 2,130 7.6 -17.6°
Maximum altitude 00:15:52 65° 164° (SSE) 692 3.7 -18.6°
Enters shadow 00:17:21 40° 98° (E) 904 3.9 -18.9°
